Track IRIDIUM 106 now! 10-day predictions IRIDIUM 106 is classified as:
1 41917U 17003A 26254.95729105 .00000046 00000-0 94609-5 0 9993 2 41917 86.3935 52.2483 0002003 83.5289 276.6135 14.34217618505649